Location: Unspecified
(35.7250°N, 0.0000°E)
Time: 18:46:34
(UTC+00:00)

Courier 1B Rocket - Pass Details

Date: 23 June 2019
Orbit: 920 x 1202 km, 28.3° (Epoch: 22 August)

Event Time Altitude Azimuth Distance (km) Brightness Sun altitude
Exits shadow 02:49:51 22° 184° (S) 2,136 6.3 -18.8°
Maximum altitude 02:51:50 25° 160° (SSE) 1,973 6.3 -18.5°
Drops below altitude 10° 02:57:11 10° 108° (ESE) 2,778 7.7 -17.8°
Sets 03:00:16 0° 95° (E) 3,684 8.6 -17.4°
